Weather History for KCNM - December, 2012

Change the Weather History Date:

Sunday, December 9, 2012

  Actual Average Record
Temperature  
Mean Temperature 48 °F -  
Max Temperature 62 °F 58 °F 80 °F (1996)
Min Temperature 28 °F 29 °F 0 °F (1978)
Degree Days  
Heating Degree Days 18    
Moisture  
Dew Point 23 °F    
Average Humidity 34    
Maximum Humidity 78    
Minimum Humidity 25    
Precipitation  
Precipitation 0.00 in - - ()
Sea Level Pressure  
Sea Level Pressure 29.87 in    
Wind  
Wind Speed 13 mph (NNW)    
Max Wind Speed 26 mph    
Max Gust Speed 41 mph    
Visibility 10 miles    
Events      
Averages and records for this station are not official NWS values.
T = Trace of Precipitation, MM = Missing Value Source: NWS Daily Summary

Daily Weather History Graph

Daily Weather History Graph

Search for Another Location

Airport or City:

Trip Planner

Search our weather history database for the weather conditions in past years. The results will help you decide how hot, cold, wet, or windy it might be!

Date:

Astronomy

Dec. 09, 2012 Rise Set
Actual Time 6:47 AM MST 4:52 PM MST
Civil Twilight 6:20 AM MST 5:19 PM MST
Nautical Twilight 5:49 AM MST 5:49 PM MST
Astronomical Twilight 5:19 AM MST 6:19 PM MST
Moon 2:33 AM MST (12/9) 1:51 PM MST (12/9)
Length of Visible Light 10h 59m
Length of Day
10h 04m
Waning Crescent, 18% of the Moon is Illuminated
Dec 9
Waning Crescent
Dec 13
New
Dec 19
First Quarter
Dec 28
Full
Jan 4
Last Quarter

Hourly Weather History & Observations

Time (MST) Temp. Windchill Dew Point Humidity Pressure Visibility Wind Dir Wind Speed Gust Speed Precip Events Conditions
12:53 AM 60.1 °F - 24.1 °F 25% 29.70 in 10.0 mi WSW 13.8 mph - N/A   Clear
1:53 AM 59.0 °F - 24.1 °F 26% 29.71 in 10.0 mi WSW 13.8 mph - N/A   Clear
2:53 AM 55.9 °F - 24.1 °F 29% 29.73 in 10.0 mi WSW 8.1 mph - N/A   Clear
3:53 AM 53.1 °F - 24.1 °F 32% 29.74 in 10.0 mi West 9.2 mph - N/A   Clear
4:53 AM 53.1 °F - 24.1 °F 32% 29.75 in 10.0 mi West 10.4 mph - N/A   Clear
5:53 AM 51.1 °F - 24.1 °F 35% 29.77 in 10.0 mi West 11.5 mph - N/A   Clear
6:53 AM 53.1 °F - 24.1 °F 32% 29.78 in 10.0 mi WNW 11.5 mph - N/A   Clear
7:53 AM 59.0 °F - 26.1 °F 28% 29.78 in 10.0 mi West 19.6 mph 27.6 mph N/A   Clear
8:53 AM 62.1 °F - 26.1 °F 25% 29.80 in 10.0 mi West 17.3 mph 26.5 mph N/A   Clear
9:53 AM 60.1 °F - 25.0 °F 26% 29.83 in 10.0 mi NNW 11.5 mph - N/A   Clear
10:53 AM 59.0 °F - 26.1 °F 28% 29.83 in 10.0 mi North 13.8 mph - N/A   Clear
11:53 AM 59.0 °F - 28.0 °F 31% 29.81 in 10.0 mi North 9.2 mph - N/A   Clear
12:53 PM 57.9 °F - 25.0 °F 28% 29.78 in 10.0 mi North 17.3 mph - N/A   Clear
1:53 PM 57.9 °F - 23.0 °F 26% 29.79 in 10.0 mi North 13.8 mph - N/A   Clear
2:53 PM 55.9 °F - 21.9 °F 27% 29.80 in 10.0 mi NNE 11.5 mph - N/A   Clear
3:53 PM 54.0 °F - 21.0 °F 28% 29.82 in 10.0 mi NE 12.7 mph - N/A   Clear
4:53 PM 50.0 °F - 21.9 °F 33% 29.83 in 10.0 mi NE 6.9 mph - N/A   Clear
5:53 PM 46.9 °F - 24.1 °F 41% 29.88 in 10.0 mi NNE 10.4 mph - N/A   Clear
6:53 PM 45.0 °F 39.3 °F 23.0 °F 42% 29.95 in 10.0 mi NNE 11.5 mph - N/A   Clear
7:53 PM 43.0 °F 36.4 °F 19.9 °F 40% 30.02 in 10.0 mi North 12.7 mph - N/A   Scattered Clouds
8:53 PM 39.0 °F 27.8 °F 12.9 °F 34% 30.14 in 5.0 mi North 26.5 mph 41.4 mph N/A   Haze
9:53 PM 35.1 °F 22.5 °F 12.9 °F 40% 30.21 in 10.0 mi NNW 26.5 mph 32.2 mph N/A   Overcast
10:53 PM 33.1 °F 23.0 °F 18.0 °F 54% 30.22 in 10.0 mi NNW 15.0 mph - N/A   Mostly Cloudy
11:53 PM 28.9 °F 18.6 °F 23.0 °F 78% 30.23 in 10.0 mi NNW 12.7 mph - N/A   Clear